Dewpoint
56 57 57 57 57 57 56 56 57 57 57 57 56 56 56 55 55 56 56 57 57 57 57 57 57 57 52 41 28 41 57 50 39 41 37 35 33 33 30 30 27 25 28 28 30 31 30
55 56 56 56 56 56 56 56 56 56 57 56 56 56 56 56 57 57 57 57 56 56 56 57 57 57 48 27 30 36 35 35 37 38 36 36 37 36 33 30 27 26 26 26 31 30 31
55 55 55 56 56 56 56 56 56 56 56 56 55 56 56 56 56 56 56 56 55 56 56 56 57 52 39 31 33 31 35 37 39 40 39 40 40 38 36 31 28 25 24 28 30 30 29
55 55 55 55 55 56 56 56 56 56 56 55 55 56 56 56 56 56 56 55 55 55 57 57 56 49 34 38 33 31 34 36 39 40 42 43 44 42 38 33 26 24 23 24 26 30 31
56 56 55 55 55 56 56 56 56 55 56 55 55 55 55 55 56 56 56 56 54 56 56 56 50 43 29 41 32 31 35 35 36 40 43 38 40 37 25 19 18 20 17 20 25 29 29
57 57 57 57 56 56 56 56 55 55 55 55 55 55 55 55 55 55 55 55 55 53 52 50 42 32 27 30 33 32 34 36 37 36 38 36 33 25 20 19 14 16 16 19 22 25 24
58 58 57 57 57 57 56 56 55 55 56 56 55 54 54 54 54 55 50 41 33 34 34 29 30 31 31 34 36 36 36 34 35 32 23 28 20 15 16 18 18 18 16 19 22 25 21
60 60 59 59 58 58 57 57 56 56 56 55 55 54 54 54 55 55 43 40 41 38 32 36 35 34 33 35 32 33 34 29 29 24 24 23 14 17 21 20 18 18 17 18 23 24 21
61 60 60 59 59 58 58 57 57 56 56 55 55 54 53 53 54 46 43 42 45 44 39 34 34 33 31 35 29 30 31 30 28 23 21 18 16 19 19 17 16 19 17 18 21 26 26
61 61 60 60 59 59 58 58 57 57 56 55 55 54 53 53 43 42 42 45 45 44 29 21 26 32 32 33 30 33 34 30 29 21 21 17 18 21 19 13 18 17 21 23 25 25 19
61 61 61 60 60 59 58 58 58 57 56 55 55 54 53 53 41 41 44 45 45 44 20 24 24 32 29 27 25 31 33 30 26 19 20 18 14 19 17 12 19 17 22 22 24 22 23
62 62 61 61 60 59 59 58 58 57 56 55 55 54 52 45 45 45 45 45 44 31 13 20 24 21 20 25 25 21 27 29 26 23 21 17 22 21 14 17 20 22 22 22 24 23 21
62 61 61 61 61 60 59 59 58 57 56 55 55 54 50 44 41 45 45 42 33 23 18 19 21 23 22 18 18 19 18 18 16 16 16 19 17 18 20 18 23 26 23 21 17 20 19
61 61 61 61 61 60 60 59 59 58 56 55 54 52 48 43 47 45 44 35 25 18 20 24 23 21 19 15 17 16 14 17 19 17 17 16 18 16 17 21 21 22 20 19 14 13 10
60 60 60 60 60 60 60 60 59 58 56 54 51 46 44 46 45 45 37 32 27 18 23 22 21 13 15 17 13 11 10 18 21 18 12 13 14 17 16 20 22 19 17 17 18 18 10
59 60 59 59 59 60 60 59 59 58 55 52 42 42 42 44 44 42 34 34 23 24 25 24 15 12 9 11 10 10 8 18 24 21 19 15 12 17 19 17 20 20 17 15 19 13 12
59 58 58 58 58 58 58 59 59 58 55 51 42 42 44 42 42 38 32 32 24 23 27 22 19 15 13 12 11 10 7 21 22 22 18 16 14 15 17 16 13 19 17 15 16 14 11
59 59 59 59 58 58 57 58 58 57 54 47 38 44 42 41 40 37 32 25 30 26 28 26 24 22 18 15 13 12 11 17 22 20 15 19 14 15 13 14 13 17 15 13 17 16 14
58 58 58 58 58 57 57 58 58 57 53 40 44 39 40 38 37 37 28 25 27 26 24 25 24 24 22 17 13 14 15 27 25 21 16 18 15 14 18 17 17 17 17 16 14 19 15
57 57 57 57 57 57 57 57 57 57 53 40 38 40 40 33 28 26 28 30 26 28 26 24 22 24 22 19 20 17 17 24 23 22 34 26 15 14 16 18 18 17 15 15 14 19 18
56 56 57 57 57 57 57 57 57 56 52 40 40 41 34 38 33 26 25 25 23 22 26 25 24 23 21 18 15 14 17 21 25 30 24 22 18 20 19 20 22 21 20 20 17 15 15
56 56 56 56 57 57 57 56 56 54 49 40 39 39 29 30 25 27 28 27 25 27 26 26 24 24 23 21 17 14 17 15 15 23 22 24 18 22 20 22 23 22 23 23 22 20 16
55 55 55 56 56 57 57 56 55 52 49 44 38 32 39 39 29 28 28 28 30 32 33 31 25 24 25 23 23 22 22 19 18 18 21 23 22 23 23 23 23 21 23 25 22 21 22
54 55 55 55 55 56 56 56 54 52 50 46 39 35 35 38 34 32 33 31 31 34 33 29 29 27 27 30 31 29 29 28 26 26 21 25 24 29 25 23 18 22 25 26 24 22 20
53 54 55 55 55 55 56 56 54 53 52 45 41 41 39 38 36 35 33 30 30 31 35 35 35 33 31 30 29 28 26 26 26 24 28 26 31 28 25 22 22 22 23 23 23 21 19
50 52 53 55 54 54 55 55 55 53 53 47 44 46 43 40 38 37 35 32 32 33 35 36 32 32 33 31 34 26 23 24 23 22 22 22 27 28 28 23 19 21 20 20 21 18 17
49 51 51 52 54 54 54 55 55 54 53 49 46 45 44 40 40 32 31 31 32 35 34 35 34 33 36 34 31 28 25 27 24 23 20 23 27 25 25 26 25 19 19 22 15 16 16
49 50 50 50 52 53 54 54 54 54 53 51 48 44 45 41 42 34 32 32 33 35 35 37 37 36 35 32 31 30 29 29 24 25 22 24 24 23 26 24 20 17 20 20 18 16 16
49 49 50 50 51 52 53 53 54 54 54 52 47 45 46 43 41 36 35 33 34 37 39 39 39 37 38 34 34 34 33 33 26 24 25 25 28 27 26 23 16 16 17 18 17 16 15
Lifted_Index
9 9 9 9 9 9 9 10 10 10 10 10 10 10 10 10 10 10 10 10 10 9 9 9 9 9 10 10 11 12 12 11 11 10 9 9 8 9 9 8 8 8 8 7 7 7 7
10 9 9 9 9 9 9 10 10 10 10 10 10 10 10 9 9 10 10 10 10 10 10 10 10 10 10 11 12 12 12 12 11 11 10 9 9 9 8 8 8 8 8 7 7 6 6
10 10 10 10 10 10 9 10 10 10 10 10 11 10 9 9 9 10 11 11 11 11 10 10 10 10 11 12 12 13 12 12 11 11 10 9 9 8 8 8 8 8 8 7 6 5 5
10 10 10 10 10 10 10 10 10 10 10 11 10 10 9 9 10 11 12 12 12 12 11 10 10 10 11 12 13 13 12 12 11 10 10 9 9 9 9 9 9 8 7 6 5 5 4
10 10 10 10 10 10 10 10 10 10 10 10 10 9 8 8 9 10 11 12 12 12 11 11 10 11 11 12 13 13 12 12 11 10 10 9 9 9 9 9 8 8 7 6 5 4 4
9 9 10 10 10 10 10 10 10 9 9 8 7 7 6 7 8 9 10 11 12 12 11 11 11 11 12 13 13 13 12 12 11 10 10 9 9 9 9 9 8 7 7 6 5 5 5
8 9 9 9 9 9 9 9 8 7 6 5 5 5 5 6 8 9 9 10 10 11 11 11 12 12 12 13 13 12 12 11 11 10 10 10 9 9 9 9 8 8 7 6 5 5 5
7 7 7 7 7 7 6 6 6 5 4 4 4 4 5 6 7 8 9 9 10 11 11 11 12 12 13 12 12 12 12 11 10 10 10 9 9 10 10 9 9 9 8 6 5 5 6
5 5 5 5 5 4 4 4 4 4 4 4 4 5 5 6 7 7 8 10 12 12 10 11 11 12 12 12 11 11 12 12 10 10 9 9 9 10 10 9 9 8 8 7 6 6 5
4 4 4 4 3 3 3 3 3 3 3 4 4 5 5 6 6 7 9 12 13 11 9 9 11 12 12 11 11 11 12 11 10 10 9 9 9 9 9 9 9 8 8 7 7 6 5
3 3 3 3 3 3 3 3 3 3 3 4 4 5 5 6 6 7 10 13 12 9 6 8 10 11 11 10 10 11 11 11 10 10 10 9 9 9 9 9 9 9 8 8 7 6 5
3 3 3 3 3 3 3 3 3 3 3 4 4 5 5 6 7 9 11 11 9 6 5 7 9 9 9 9 10 10 10 10 10 9 9 9 9 9 9 9 9 9 8 6 5 5 4
4 4 3 3 3 3 3 3 3 3 3 4 4 5 6 6 8 10 10 8 6 5 6 7 8 8 8 8 9 9 9 8 8 8 7 7 7 8 9 9 9 8 6 4 3 2 2
5 5 4 4 4 4 3 3 3 3 3 4 4 5 6 7 9 9 8 6 4 5 6 7 7 7 8 8 8 8 8 8 8 8 6 5 6 8 9 9 8 8 6 4 2 2 2
6 6 6 5 5 4 4 4 3 3 4 4 4 4 5 7 9 8 6 5 4 5 6 6 6 6 7 7 8 8 8 8 9 9 8 6 5 7 9 9 9 8 7 5 4 2 2
7 7 7 7 6 6 5 5 4 4 4 4 4 4 5 7 7 6 5 4 5 6 6 6 6 6 6 7 7 7 8 9 10 10 9 7 6 7 8 8 8 8 7 6 5 3 1
7 7 7 7 7 7 7 7 6 6 6 5 5 5 6 6 6 5 4 4 5 6 6 6 5 5 6 6 7 7 8 9 10 11 10 9 7 6 6 7 7 7 7 6 5 3 2
8 7 7 7 7 7 7 7 7 7 6 6 6 6 6 6 5 5 4 5 5 6 6 6 5 5 6 6 6 6 7 9 11 11 10 9 7 5 5 6 6 6 6 6 6 5 4
8 8 7 7 7 7 7 7 7 7 7 7 7 6 6 6 5 5 5 5 6 6 7 6 5 5 5 5 6 6 7 9 11 11 11 9 7 4 3 5 6 6 6 6 6 5 4
8 8 8 8 7 6 6 6 7 7 7 7 7 7 7 6 6 6 6 6 7 7 7 7 6 5 5 5 5 6 7 9 10 11 11 9 7 4 3 4 5 5 5 5 5 4 4
8 8 8 8 7 6 6 6 6 7 7 7 7 7 7 6 6 6 6 6 7 7 7 7 6 5 5 5 5 5 6 8 9 10 10 8 6 5 4 4 5 5 5 5 4 4 3
8 8 8 8 7 6 6 6 6 7 7 7 7 7 7 7 6 6 6 6 6 7 7 6 5 5 5 5 5 6 7 8 8 8 8 7 5 4 4 4 4 4 4 4 4 4 4
8 8 8 8 8 7 6 6 6 7 7 7 7 8 8 7 6 6 6 6 6 6 6 6 5 5 5 6 7 7 7 8 8 7 7 6 4 3 3 4 4 3 4 4 4 4 5
9 9 9 8 8 7 7 6 6 6 6 6 7 7 7 6 6 6 6 6 6 6 6 6 6 6 6 7 7 7 7 7 6 6 6 5 4 3 3 3 3 4 4 5 4 5 5
9 9 9 9 9 8 7 6 5 5 5 6 7 7 7 6 5 5 6 6 5 5 6 6 6 6 6 6 5 5 4 4 4 5 5 5 4 3 3 2 3 4 5 5 5 5 6
10 10 10 9 9 8 7 6 5 5 5 6 6 6 6 6 6 5 5 5 5 5 5 5 6 6 6 5 4 3 3 3 3 4 4 4 4 3 2 2 3 5 6 6 6 5 6
11 11 10 10 9 8 8 7 5 5 5 5 5 6 6 6 6 6 5 5 4 4 5 5 5 5 5 4 3 3 3 3 3 3 3 4 3 3 2 2 4 5 7 7 6 6 7
11 11 11 10 9 9 8 7 6 5 5 5 5 5 5 6 6 6 5 5 5 4 4 5 4 4 4 3 3 3 3 4 4 3 3 3 3 3 3 3 4 6 7 7 7 8 9
12 11 11 10 9 9 8 8 7 5 4 4 4 5 5 5 6 6 5 5 5 4 4 4 4 4 3 3 3 3 4 4 4 3 3 3 3 3 3 4 5 6 7 8 8 9 9